Location: Unspecified
(0.0000°N, 0.0000°E)
Time: 07:02:40
(UTC+00:00)

Vanguard 2 Rocket - Pass Details

Date: 10 October 2022
Orbit: 555 x 3321 km, 32.9° (Epoch: 06 December)

Event Time Altitude Azimuth Distance (km) Brightness Sun altitude
Rises 06:15:55 0° 279° (W) 2,962 8.9 7.2°
Reaches altitude 10° 06:18:55 10° 260° (W) 1,890 8.0 7.9°
Maximum altitude 06:21:50 19° 214° (SW) 1,359 7.6 8.6°
Drops below altitude 10° 06:24:43 10° 167° (SSE) 1,857 8.8 9.3°
Sets 06:27:38 0° 148° (SSE) 2,889 10.1 10.1°
